When you browse on this site, cookies collect data to enhance your experience and personalize the content and advertising you see.
Visit our Privacy Policy to learn more. By continuing to use the site, you agree to this use of cookies and data.
  • In Czech Republic
  • List of Countries
  • For 7 days
  • Water Temperature
  • Weather Map
  • Weather Widgets
  • user-avatar
    Login

    Hourly Weather Prigorodnyy

    Today, 20 February, Thursday

    Time Temperature Precipitation Wind Pressure Humidity
    00:00 -2°C° 0 mm 3 mps 743 mmHg 92%
    01:00 -2°C° 0 mm 3 mps 744 mmHg 92%
    02:00 -2°C° 0 mm 2 mps 744 mmHg 93%
    03:00 -2°C° 0 mm 2 mps 744 mmHg 93%
    04:00 -2°C° 0 mm 2 mps 744 mmHg 93%
    05:00 -2°C° 0 mm 2 mps 744 mmHg 93%
    06:00 -2°C° 0 mm 2 mps 745 mmHg 93%
    07:00 -2°C° 0 mm 2 mps 745 mmHg 93%
    08:00 -1°C° 0 mm 3 mps 745 mmHg 94%
    09:00 -1°C° 0 mm 3 mps 746 mmHg 94%
    10:00 0°C° 0 mm 3 mps 746 mmHg 94%
    11:00 +1°C° 0 mm 3 mps 746 mmHg 94%
    12:00 +1°C° 0 mm 3 mps 746 mmHg 94%
    13:00 +1°C° 0 mm 3 mps 746 mmHg 94%
    14:00 +1°C° 0 mm 3 mps 746 mmHg 94%
    15:00 +1°C° 0 mm 3 mps 747 mmHg 94%
    16:00 0°C° 0 mm 3 mps 747 mmHg 94%
    17:00 0°C° 0 mm 3 mps 747 mmHg 94%
    18:00 +1°C° 0 mm 2 mps 747 mmHg 94%
    19:00 -1°C° 0 mm 2 mps 748 mmHg 94%
    20:00 -1°C° 0 mm 2 mps 748 mmHg 94%
    21:00 -1°C° 0 mm 2 mps 748 mmHg 94%
    22:00 -1°C° 0 mm 2 mps 748 mmHg 94%
    23:00 -2°C° 0 mm 2 mps 748 mmHg 95%

    Tomorrow, 21 February, Friday

    Time Temperature Precipitation Wind Pressure Humidity
    00:00 -2°C° 0 mm 2 mps 748 mmHg 95%
    01:00 -2°C° 0 mm 2 mps 748 mmHg 95%
    02:00 -2°C° 0 mm 2 mps 748 mmHg 95%
    03:00 -2°C° 0 mm 2 mps 748 mmHg 95%
    04:00 -2°C° 0 mm 2 mps 748 mmHg 95%
    05:00 -3°C° 0 mm 2 mps 748 mmHg 95%
    06:00 -2°C° 0 mm 2 mps 748 mmHg 95%
    07:00 -2°C° 0 mm 2 mps 749 mmHg 95%
    08:00 -2°C° 0 mm 2 mps 749 mmHg 95%
    15:00 +1°C° 0 mm 2 mps 748 mmHg 93%
    16:00 -1°C° 0 mm 2 mps 748 mmHg 94%
    17:00 -1°C° 0 mm 2 mps 748 mmHg 95%
    18:00 -2°C° 0 mm 2 mps 748 mmHg 95%
    19:00 -2°C° 0 mm 2 mps 749 mmHg 95%
    20:00 -2°C° 0 mm 3 mps 749 mmHg 95%
    21:00 -2°C° 0 mm 2 mps 749 mmHg 95%
    22:00 -2°C° 0 mm 2 mps 749 mmHg 94%
    23:00 -2°C° 0 mm 2 mps 749 mmHg 94%

    Day after tomorrow, 22 February, Saturday

    Time Temperature Precipitation Wind Pressure Humidity
    00:00 -2°C° 0 mm 2 mps 750 mmHg 94%
    01:00 -3°C° 0 mm 2 mps 750 mmHg 94%
    02:00 -3°C° 0 mm 2 mps 750 mmHg 95%
    03:00 -3°C° 0 mm 2 mps 750 mmHg 95%
    04:00 -3°C° 0 mm 2 mps 750 mmHg 95%
    05:00 -3°C° 0 mm 2 mps 750 mmHg 95%
    06:00 -3°C° 0 mm 2 mps 750 mmHg 95%
    07:00 -3°C° 0 mm 2 mps 750 mmHg 94%
    08:00 -2°C° 0 mm 2 mps 751 mmHg 94%
    09:00 -2°C° 0 mm 3 mps 750 mmHg 91%
    10:00 -1°C° 0 mm 3 mps 750 mmHg 89%
    11:00 0°C° 0 mm 3 mps 750 mmHg 86%
    12:00 -1°C° 0 mm 4 mps 750 mmHg 85%
    13:00 -1°C° 0 mm 4 mps 750 mmHg 83%
    14:00 -1°C° 0 mm 4 mps 750 mmHg 81%
    15:00 -2°C° 0 mm 4 mps 749 mmHg 83%
    16:00 -2°C° 0 mm 4 mps 749 mmHg 86%
    17:00 -3°C° 0 mm 4 mps 748 mmHg 88%
    18:00 -3°C° 0 mm 4 mps 748 mmHg 87%
    19:00 -4°C° 0 mm 5 mps 747 mmHg 85%
    20:00 -5°C° 0 mm 5 mps 747 mmHg 84%
    21:00 -5°C° 0 mm 6 mps 746 mmHg 83%
    22:00 -5°C° 0 mm 6 mps 745 mmHg 82%
    23:00 -6°C° 0 mm 7 mps 744 mmHg 81%

    23 February, Sunday

    Time Temperature Precipitation Wind Pressure Humidity
    00:00 -4°C° 0 mm 7 mps 743 mmHg 82%
    01:00 -5°C° 0 mm 8 mps 742 mmHg 83%
    02:00 -5°C° 0 mm 8 mps 741 mmHg 84%
    03:00 -5°C° 0 mm 9 mps 740 mmHg 85%
    04:00 -5°C° 0 mm 9 mps 738 mmHg 86%
    05:00 -5°C° 0 mm 10 mps 737 mmHg 87%
    06:00 -4°C° 0.6 mm 10 mps 736 mmHg 89%
    07:00 -4°C° 0.6 mm 10 mps 735 mmHg 91%
    08:00 -4°C° 0.6 mm 11 mps 734 mmHg 94%
    09:00 -4°C° 0.7 mm 11 mps 733 mmHg 94%
    10:00 -4°C° 0.7 mm 10 mps 732 mmHg 95%
    11:00 -4°C° 0.7 mm 10 mps 731 mmHg 96%
    12:00 -2°C° 0.7 mm 8 mps 731 mmHg 97%
    13:00 -2°C° 0.7 mm 7 mps 730 mmHg 97%
    14:00 -2°C° 0.7 mm 6 mps 730 mmHg 98%
    15:00 -1°C° 0 mm 5 mps 730 mmHg 96%
    16:00 -1°C° 0 mm 5 mps 730 mmHg 95%
    17:00 -1°C° 0 mm 4 mps 730 mmHg 94%
    18:00 -2°C° 0 mm 4 mps 730 mmHg 92%
    19:00 -2°C° 0 mm 4 mps 730 mmHg 91%
    20:00 -2°C° 0 mm 4 mps 731 mmHg 90%
    21:00 -3°C° 0 mm 4 mps 730 mmHg 90%
    22:00 -3°C° 0 mm 4 mps 730 mmHg 90%
    23:00 -3°C° 0 mm 4 mps 730 mmHg 90%

    24 February, Monday

    Time Temperature Precipitation Wind Pressure Humidity
    00:00 -3°C° 0 mm 4 mps 730 mmHg 90%
    01:00 -3°C° 0 mm 4 mps 731 mmHg 91%
    02:00 -4°C° 0 mm 4 mps 731 mmHg 91%
    03:00 -4°C° 0 mm 4 mps 730 mmHg 92%
    04:00 -4°C° 0 mm 4 mps 730 mmHg 93%
    05:00 -4°C° 0 mm 4 mps 730 mmHg 94%
    06:00 -4°C° 0 mm 4 mps 730 mmHg 94%
    07:00 -4°C° 0 mm 4 mps 731 mmHg 94%
    08:00 -3°C° 0 mm 4 mps 731 mmHg 95%
    09:00 -3°C° 0 mm 4 mps 731 mmHg 92%
    10:00 -2°C° 0 mm 4 mps 731 mmHg 88%
    11:00 -2°C° 0 mm 5 mps 731 mmHg 85%
    12:00 -2°C° 0 mm 5 mps 731 mmHg 85%
    13:00 -2°C° 0 mm 4 mps 731 mmHg 84%
    14:00 -1°C° 0 mm 4 mps 731 mmHg 84%
    15:00 -2°C° 0 mm 4 mps 731 mmHg 86%
    16:00 -1°C° 0 mm 3 mps 732 mmHg 89%
    17:00 -1°C° 0 mm 3 mps 732 mmHg 91%
    18:00 -2°C° 0 mm 3 mps 732 mmHg 92%
    19:00 -2°C° 0 mm 3 mps 733 mmHg 93%
    20:00 -2°C° 0 mm 3 mps 733 mmHg 93%
    21:00 -2°C° 0.1 mm 3 mps 733 mmHg 95%
    22:00 -2°C° 0.1 mm 3 mps 734 mmHg 96%
    23:00 -2°C° 0.1 mm 3 mps 734 mmHg 97%

    25 February, Tuesday

    Time Temperature Precipitation Wind Pressure Humidity
    00:00 -2°C° 0.1 mm 3 mps 734 mmHg 96%
    01:00 -2°C° 0.1 mm 3 mps 735 mmHg 96%
    02:00 -1°C° 0.1 mm 3 mps 735 mmHg 95%
    03:00 -2°C° 0 mm 3 mps 736 mmHg 94%
    04:00 -3°C° 0 mm 4 mps 736 mmHg 94%
    05:00 -4°C° 0 mm 4 mps 737 mmHg 93%
    06:00 -4°C° 0 mm 4 mps 737 mmHg 94%
    07:00 -4°C° 0 mm 4 mps 738 mmHg 94%
    08:00 -4°C° 0 mm 3 mps 738 mmHg 94%
    09:00 -4°C° 0 mm 4 mps 738 mmHg 92%
    10:00 -3°C° 0 mm 4 mps 739 mmHg 90%
    11:00 -3°C° 0 mm 4 mps 739 mmHg 88%
    12:00 -3°C° 0 mm 4 mps 739 mmHg 88%
    13:00 -3°C° 0 mm 4 mps 739 mmHg 87%
    14:00 -2°C° 0 mm 4 mps 739 mmHg 86%
    15:00 -2°C° 0 mm 4 mps 739 mmHg 86%
    16:00 -1°C° 0 mm 3 mps 739 mmHg 85%
    17:00 -1°C° 0 mm 3 mps 739 mmHg 85%
    18:00 -1°C° 0 mm 3 mps 740 mmHg 84%
    19:00 -2°C° 0 mm 4 mps 740 mmHg 83%
    20:00 -3°C° 0 mm 4 mps 740 mmHg 82%
    21:00 -3°C° 0 mm 4 mps 740 mmHg 84%
    22:00 -3°C° 0 mm 4 mps 739 mmHg 87%
    23:00 -4°C° 0 mm 4 mps 739 mmHg 90%
    Show more